Voltar ao catálogo

FENGYUN 1C DEB

AtivoSSO
NORAD 36199·DEBRIS·🇨🇳 China

Lançado May 10, 1999 de Taiyuan Satellite Launch Center

Loading…

Próximas Passagens (próximas 24 horas)

TLE

AtualizadoSource: Space-Track

Época: Sep 12, 2026, 23:41 UTC

1 36199U 99025DTY 26255.98732296  .00000361  00000-0  14915-3 0  9992
2 36199  98.2765 268.8405 0090905 335.0454  24.6347 14.29997308688995

Acompanhe FENGYUN 1C DEB em tempo real com AllMySat

Download on the App Store